#timestamp,LO_Frequency,Hit,StdDev 
1581625595.2,286046984.6,P
1581625615.1,286046984.9,P
1581625616.0,286046984.9,P
1581625635.8,286046984.4,Y
1581625655.6,286047001.2,P
1581625675.5,286046998.1,N
1581625695.3,286046998.7,N
1581625715.1,286046999.4,N
1581625735.9,286046996.6,N
1581625755.7,286046999.2,N
1581625775.6,286046996.5,N
1581625795.4,286046997.0,N
1581625815.2,286046999.4,N
1581625835.1,286046996.9,N
1581625836.0,286046996.9,N
1581625855.8,286046996.7,N
1581625875.7,286046997.2,N
1581625895.5,286046997.6,N
1581625915.3,286046997.3,N
1581625935.2,286046997.6,N
1581625955.0,286046997.5,N
1581625955.9,286046997.5,N
1581625975.8,286046997.7,N
1581625995.6,286046997.1,N
1581626015.4,286046997.7,N
1581626035.3,286046997.1,N
1581626055.1,286046997.4,N
1581626075.8,286046995.0,N
1581626095.7,286046997.6,N
1581626115.5,286046997.9,N
1581626135.4,286046994.9,N
1581626155.2,286046997.9,N
1581626175.0,286046997.9,N
1581626175.9,286046997.9,N
1581626195.8,286046997.9,N
1581626215.6,286046997.8,N
1581626235.5,286046996.8,Y
1581626255.3,286047000.8,P
1581626275.1,286047001.2,N
1581626295.9,286046998.5,N
1581626315.7,286046998.9,N
1581626335.5,286046998.4,N
1581626355.4,286046998.5,N
1581626375.2,286046998.9,N
1581626395.1,286046996.5,N
1581626396.0,286046996.5,N
1581626415.8,286046999.2,N
1581626435.6,286046998.8,N
1581626455.5,286046998.9,N
1581626475.3,286046998.5,N
1581626495.1,286046998.1,N
1581626515.9,286046999.0,N
1581626535.7,286046999.2,N
1581626555.6,286046999.0,N
1581626575.4,286046998.5,N
1581626595.2,286046998.2,N
1581626615.1,286046999.3,N
1581626616.0,286046999.3,N
1581626635.8,286046998.6,N
1581626655.6,286046998.9,N
1581626675.5,286046999.0,N
1581626695.3,286046998.8,N
1581626715.2,286046998.6,N
1581626735.9,286046998.4,N
1581626755.7,286046997.0,Y
1581626775.6,286046999.0,P
1581626795.4,286046998.4,P
1581626815.3,286046999.0,P
1581626835.1,286046998.7,Y
1581626836.0,286046998.7,P
1581626855.8,286046998.5,P
1581626875.7,286047001.0,P
1581626895.5,286047000.2,N
1581626915.3,286047000.4,N
1581626935.2,286046998.8,N
1581626955.0,286047000.8,N
1581626955.9,286047000.8,N
1581626975.8,286046998.8,N
1581626995.6,286046998.4,N
1581627015.4,286046998.7,N
1581627035.3,286046999.3,N
1581627055.1,286046998.8,N
1581627075.9,286046996.6,Y
1581627095.7,286046999.3,P
1581627115.5,286046998.2,P
1581627135.4,286046998.2,P
1581627155.2,286047001.1,N
1581627175.1,286046998.4,N
1581627176.0,286046998.4,N
1581627195.8,286046998.4,N
1581627215.6,286046998.7,N
1581627235.5,286046998.7,N
1581627255.3,286046999.3,N
1581627275.1,286046999.2,N
1581627295.9,286046999.5,N
1581627315.7,286046998.7,N
1581627335.6,286046998.4,N
1581627355.4,286046999.3,N
1581627375.2,286046998.2,N
1581627395.1,286046998.6,N
1581627396.0,286046998.6,N
1581627415.8,286047001.1,N
1581627435.7,286046998.3,N
1581627455.5,286046999.1,N
1581627475.3,286046996.8,Y
1581627495.2,286046998.9,P
1581627515.0,286046999.6,P
1581627515.9,286046999.6,N
1581627535.8,286046998.7,Y
1581627555.6,286046999.1,P
1581627575.4,286046998.7,P
1581627595.3,286046999.2,P
